Weather History for LIMH - February, 2014

Change the Weather History Date:

Friday, February 7, 2014

  Actual Average Record
Temperature  
Mean Temperature 11 °F -  
Max Temperature 16 °F 17 °F 69 °F (2013)
Min Temperature 6 °F 6 °F -11 °F (1999)
Degree Days  
Heating Degree Days 54    
Moisture  
Dew Point 11 °F    
Average Humidity 86    
Maximum Humidity 100    
Minimum Humidity 43    
Precipitation  
Precipitation 0.02 in - - ()
Sea Level Pressure  
Sea Level Pressure 29.64 in    
Wind  
Wind Speed 19 mph ()    
Max Wind Speed 37 mph    
Max Gust Speed 59 mph    
Visibility 2.4 miles    
Events Fog , Snow    
Averages and records for this station are not official NWS values.
T = Trace of Precipitation, MM = Missing Value Source: Averaged Metar Reports

Daily Weather History Graph

Daily Weather History Graph

Search for Another Location

Airport or City:

Trip Planner

Search our weather history database for the weather conditions in past years. The results will help you decide how hot, cold, wet, or windy it might be!

Date:

Astronomy

Feb. 07, 2014 Rise Set
Actual Time 7:43 AM CET 5:43 PM CET
Civil Twilight 7:12 AM CET 6:14 PM CET
Nautical Twilight 6:37 AM CET 6:50 PM CET
Astronomical Twilight 6:02 AM CET 7:24 PM CET
Moon 11:41 AM CET (2/7) 1:45 AM CET (2/7)
Length of Visible Light 11h 02m
Length of Day
9h 59m
First Quarter, 56% of the Moon is Illuminated
Feb 7
First Quarter
Feb 15
Full
Feb 22
Last Quarter
Mar 1
New
Mar 8
First Quarter

Hourly Weather History & Observations

Time (CET) Temp. Windchill Dew Point Humidity Pressure Visibility Wind Dir Wind Speed Gust Speed Precip Events Conditions
12:00 AM 19 °F - 13 °F 69%  in 6 mi SSW 25.3 mph - -   Scattered Clouds
12:55 AM 19.4 °F 0.5 °F 8.6 °F 63% 29.77 in - SW 29.9 mph 42.6 mph N/A   Clear
1:00 AM 19 °F - 9 °F 51%  in 6 mi SW 29.9 mph - -   Partly Cloudy
1:55 AM 17.6 °F -0.6 °F 5.0 °F 58% 29.74 in - SW 25.3 mph 43.7 mph N/A   Clear
2:00 AM 18 °F - 5 °F 43%  in 6 mi SW 25.3 mph - -   Partly Cloudy
2:55 AM 17.6 °F -1.6 °F 6.8 °F 63% 29.71 in - SSW 28.8 mph 48.3 mph N/A   Clear
3:00 AM 18 °F - 6 °F 46%  in 6 mi SSW 28.8 mph - -  
3:55 AM 17.6 °F -1.3 °F 10.4 °F 73% 29.68 in 0.3 mi SW 27.6 mph 50.6 mph N/A Fog Light Freezing Fog
4:00 AM 18 °F - 10 °F 58%  in 0 mi SW 27.6 mph - - Fog Heavy Fog
4:55 AM 17.6 °F -0.3 °F 8.6 °F 68% 29.68 in 0.1 mi SW 24.2 mph 54.1 mph N/A Fog Light Freezing Fog
5:00 AM 18 °F - 9 °F 55%  in 0 mi SW 24.2 mph - - Fog Heavy Fog
5:55 AM 17.6 °F -1.0 °F 8.6 °F 68% 29.65 in 0.1 mi SW 26.5 mph 55.2 mph N/A Fog Light Freezing Fog
6:00 AM 17 °F - 9 °F 58%  in 0 mi SW 26.5 mph - - Fog Heavy Fog
6:55 AM 15.8 °F -6.1 °F 10.4 °F 79% 29.65 in 0.1 mi SSW 36.8 mph 55.2 mph N/A Fog Light Freezing Fog
7:00 AM 15 °F - 11 °F 78%  in 0 mi SSW 36.8 mph - - Fog Heavy Fog
7:55 AM 15.8 °F -5.2 °F 14.0 °F 93% 29.62 in 0.1 mi SSW 33.4 mph 50.6 mph N/A Fog Light Freezing Fog
8:00 AM 15 °F - 15 °F 97%  in 0 mi SSW 33.4 mph - - Fog Heavy Fog
8:55 AM 15.8 °F -5.8 °F 15.8 °F 100% 29.62 in 0.1 mi SSW 35.7 mph 58.7 mph N/A Fog Light Freezing Fog
9:00 AM 15 °F - 15 °F 100%  in 0 mi SSW 35.7 mph - - Fog Heavy Fog
9:55 AM 14.0 °F -6.2 °F 14.0 °F 100% 29.62 in 0.1 mi SSW 27.6 mph 51.8 mph N/A Fog , Snow Light Snow
10:00 AM 14 °F - 14 °F 100%  in 0 mi SSW 27.6 mph - - Snow Light Snow
10:55 AM 12.2 °F -1.8 °F 12.2 °F 100% 29.62 in 0.1 mi SSW 11.5 mph 27.6 mph N/A Fog , Snow Light Snow
11:00 AM 13 °F - 13 °F 99%  in 0 mi SSW 11.5 mph - - Snow Light Snow
11:55 AM 12.2 °F -7.9 °F 12.2 °F 100% 29.62 in 0.1 mi SSW 25.3 mph 40.3 mph N/A Fog , Snow Light Snow
12:00 PM 12 °F - 12 °F 100%  in 0 mi SSW 25.3 mph - - Snow Light Snow
12:55 PM 14.0 °F 1.2 °F 12.2 °F 93% 29.62 in 0.1 mi SSW 10.4 mph 21.9 mph N/A Fog , Snow Light Snow
1:00 PM 13 °F - 13 °F 100%  in 0 mi SSW 10.4 mph - - Snow Light Snow
1:55 PM 14.0 °F 3.9 °F 14.0 °F 100% 29.62 in 0.1 mi North 6.9 mph - N/A Fog , Snow Light Snow
2:00 PM 14 °F - 14 °F 99%  in 0 mi Calm Calm - - Snow Light Snow
2:55 PM 14.0 °F 2.9 °F 14.0 °F 100% 29.59 in 0.5 mi SW 8.1 mph - N/A Fog Light Freezing Fog
3:00 PM 14 °F - 14 °F 100%  in 0 mi SW 8.1 mph - - Fog Heavy Fog
3:55 PM 15.8 °F 10.2 °F 15.8 °F 100% 29.59 in 3.7 mi Variable 3.5 mph - N/A   Mostly Cloudy
4:00 PM 15 °F - 15 °F 100%  in 4 mi 3.5 mph - - Fog Light Fog
4:55 PM 15.8 °F - 15.8 °F 100% 29.59 in 0.5 mi Variable 1.2 mph - N/A Fog Light Freezing Fog
5:00 PM 16 °F - 16 °F 99%  in 0 mi 1.2 mph - - Fog Heavy Fog
5:55 PM 14.0 °F 5.1 °F 14.0 °F 100% 29.59 in 6.2 mi SW 5.8 mph - N/A   Partly Cloudy
6:00 PM 14 °F - 14 °F 100%  in 6 mi SW 5.8 mph - -   Scattered Clouds
6:55 PM 12.2 °F 6.1 °F 12.2 °F 100% 29.62 in 6.2 mi Variable 3.5 mph - N/A   Partly Cloudy
7:00 PM 12 °F - 11 °F 95%  in 6 mi 3.5 mph - -   Partly Cloudy
7:55 PM 12.2 °F 6.1 °F 12.2 °F 100% 29.62 in 6.2 mi Variable 3.5 mph - N/A   Partly Cloudy
8:00 PM 12 °F - 11 °F 97%  in 6 mi 3.5 mph - -   Scattered Clouds
8:55 PM 10.4 °F 4.0 °F 10.4 °F 100% 29.62 in 6.2 mi NNW 3.5 mph - N/A   Scattered Clouds
9:55 PM 8.6 °F -1.3 °F 6.8 °F 92% 29.65 in 6.2 mi ENE 5.8 mph - N/A   Partly Cloudy
10:00 PM 9 °F - 7 °F 88%  in 6 mi ENE 5.8 mph - -   Scattered Clouds
10:55 PM 6.8 °F -8.6 °F 6.8 °F 100% 29.62 in 6.2 mi ENE 11.5 mph - N/A   Partly Cloudy
11:00 PM 8 °F - 6 °F 87%  in 6 mi ENE 11.5 mph - -   Scattered Clouds
11:55 PM 6.8 °F -6.9 °F 5.0 °F 92% 29.62 in 6.2 mi WNW 9.2 mph 23.0 mph N/A   Partly Cloudy